Temp
11 11 11 12 12 13 13 13 13 14 15 15 15 15 16 16 17 18 18 18 19 19 20 20 20 20 20 20 23 26 25 25 26 26 26 25 26 27 27 29 31 30 31 32 32 32 32
11 11 11 11 11 11 11 11 12 13 13 14 15 15 15 16 17 17 18 19 19 19 20 20 20 20 19 18 27 26 26 25 26 26 26 25 27 28 30 30 29 32 33 33 34 30 33
11 10 10 10 10 10 11 11 11 11 12 13 13 14 15 15 15 17 18 19 19 20 20 20 20 19 19 23 27 25 26 26 26 26 25 26 27 28 30 29 31 32 30 32 33 35 31
10 10 10 10 10 10 10 11 11 11 11 12 13 14 15 15 16 17 18 19 19 20 20 20 20 19 18 25 26 27 26 26 27 27 26 27 28 28 29 30 31 30 29 28 32 33 34
10 9 9 9 9 9 10 10 10 10 11 11 12 13 14 15 16 17 18 20 20 21 20 20 19 18 18 25 25 28 26 27 27 27 27 28 28 29 29 27 25 27 26 28 30 34 33
9 8 7 7 7 8 8 8 9 9 9 10 11 12 13 14 15 16 18 20 21 20 19 18 17 16 23 26 26 27 27 27 28 28 28 28 29 25 26 25 24 25 27 28 30 32 32
6 6 6 6 6 6 6 6 6 7 8 9 9 11 12 14 15 16 18 20 20 20 17 19 20 22 25 26 28 28 28 27 28 28 25 28 24 25 25 27 28 29 29 29 31 33 27
6 6 6 6 6 6 6 6 6 7 8 9 9 10 11 14 15 16 16 17 18 19 20 20 21 21 23 26 25 28 29 28 27 25 26 25 25 26 28 29 29 29 29 29 31 33 28
5 5 6 6 6 6 6 6 6 6 7 9 9 10 11 13 15 16 17 18 19 19 19 20 22 22 23 24 24 27 29 29 27 26 27 25 27 29 29 29 29 28 28 29 29 33 29
5 5 5 5 5 5 5 5 6 6 6 7 9 9 10 12 15 16 17 16 18 18 16 21 25 25 24 24 26 26 29 29 28 26 27 26 29 29 28 28 29 27 30 31 31 31 28
5 5 5 5 5 5 5 5 6 6 7 8 9 9 10 10 11 15 15 17 18 18 17 28 28 29 27 25 28 27 28 29 27 27 27 27 28 28 28 29 30 29 31 31 31 30 28
5 5 5 5 5 5 5 5 6 6 6 7 9 10 10 11 11 15 15 17 16 17 18 26 30 29 26 26 27 30 28 28 29 28 28 28 31 29 29 31 31 31 30 30 30 30 28
5 5 5 5 5 5 5 5 5 5 5 6 9 10 11 10 13 13 14 16 16 17 25 28 28 29 28 27 27 28 28 27 26 25 25 27 28 29 31 29 29 30 26 27 26 27 26
4 4 5 5 4 4 4 4 4 5 5 5 6 9 12 13 13 13 13 14 14 21 22 26 27 28 28 29 28 29 28 26 27 26 24 24 25 28 30 29 28 29 28 27 23 25 27
4 4 4 4 4 4 4 4 4 4 5 5 5 9 11 15 13 12 11 12 17 20 22 23 22 25 27 29 29 28 27 27 28 27 25 25 25 30 31 31 30 28 27 29 26 26 25
4 4 4 4 4 4 4 4 4 4 4 5 5 7 13 14 13 13 12 12 16 20 19 18 17 22 20 22 24 28 28 29 29 29 28 26 25 28 31 31 31 30 29 27 28 25 26
4 4 4 4 4 4 4 3 3 3 4 5 5 7 14 13 14 13 12 13 15 17 18 18 18 19 20 21 22 22 26 30 31 30 29 28 27 27 29 29 29 29 28 27 27 27 26
4 4 4 3 3 3 3 3 3 3 3 4 4 7 13 11 10 15 14 15 16 16 17 18 18 18 18 19 20 22 23 25 31 31 29 29 26 25 27 29 31 30 27 27 26 24 24
3 3 3 3 3 3 3 3 3 2 2 2 3 5 11 10 10 12 14 16 16 17 17 17 18 19 20 18 18 20 22 25 27 28 29 28 28 24 25 27 29 29 30 27 28 24 24
3 3 3 3 3 3 3 3 3 2 2 2 2 6 9 9 12 12 13 11 10 11 13 14 15 15 15 15 17 18 19 22 26 27 27 26 27 27 26 26 27 27 29 29 28 27 27
3 3 3 3 2 3 3 3 3 3 2 2 3 5 7 6 7 7 9 8 9 10 12 11 13 11 10 10 12 14 15 14 17 23 25 24 27 27 28 29 29 29 29 30 28 28 26
3 3 3 3 2 2 3 2 3 2 2 1 2 3 4 4 6 7 9 10 10 11 11 10 10 9 9 10 9 9 10 11 12 15 15 18 22 24 25 28 29 29 30 30 30 30 29
2 2 2 2 2 2 3 2 3 2 2 1 2 2 2 3 5 6 7 9 8 8 9 8 9 10 9 11 8 8 9 11 12 13 13 16 19 22 23 26 27 26 29 29 29 30 29
3 3 2 2 2 3 3 2 2 3 2 2 2 2 2 3 4 6 7 8 9 8 9 9 10 10 10 10 10 11 13 14 15 16 17 18 18 21 22 24 23 27 28 30 29 29 29
3 3 3 3 3 2 2 2 2 2 2 2 2 2 1 2 4 5 7 8 8 8 9 9 10 9 10 10 9 10 13 15 17 19 19 20 19 20 20 22 24 26 28 29 28 27 29
3 3 3 3 2 2 2 2 2 2 2 2 2 2 2 0 3 5 5 6 6 6 7 8 7 7 8 9 7 8 11 12 15 18 22 22 21 21 20 21 22 25 28 29 29 25 27
3 3 3 3 3 2 2 2 2 2 2 2 2 2 2 0 1 3 5 5 6 6 5 6 5 6 7 8 7 7 8 13 13 14 19 20 21 21 21 22 24 26 28 27 24 23 26
2 3 2 2 2 2 2 2 2 2 2 2 2 2 2 1 2 2 3 4 5 6 6 6 4 4 6 7 8 8 8 12 12 14 15 16 19 20 21 21 22 23 25 25 22 27 27
2 2 2 2 2 2 2 2 2 2 2 2 2 2 2 2 2 3 4 4 4 5 6 6 5 4 4 7 10 9 10 9 11 12 16 15 14 16 20 20 19 18 18 20 23 25 26
Height
1554 1551 1548 1545 1542 1538 1534 1530 1526 1522 1519 1515 1512 1509 1506 1503 1500 1497 1494 1491 1488 1486 1484 1483 1480 1480 1479 1477 1463 1465 1465 1466 1466 1468 1468 1470 1474 1477 1479 1472 1468 1468 1465 1463 1463 1464 1465
1554 1551 1547 1544 1541 1537 1534 1530 1526 1522 1518 1514 1510 1507 1503 1500 1496 1493 1490 1487 1484 1482 1480 1478 1477 1476 1475 1471 1457 1458 1460 1462 1463 1464 1464 1467 1468 1470 1471 1467 1466 1459 1459 1459 1454 1462 1459
1554 1550 1547 1543 1539 1535 1532 1528 1525 1521 1517 1513 1509 1504 1500 1497 1493 1489 1485 1482 1480 1477 1475 1474 1473 1471 1468 1450 1455 1457 1458 1457 1460 1461 1462 1464 1467 1470 1468 1466 1461 1460 1462 1453 1451 1450 1460
1554 1550 1546 1542 1539 1535 1530 1526 1522 1518 1514 1510 1506 1502 1498 1494 1489 1484 1480 1477 1474 1472 1470 1469 1468 1466 1454 1446 1449 1451 1454 1454 1458 1459 1461 1463 1465 1466 1466 1465 1461 1462 1461 1473 1449 1445 1448
1553 1549 1545 1541 1537 1532 1528 1524 1520 1516 1511 1507 1502 1497 1494 1490 1486 1481 1475 1472 1468 1466 1464 1463 1464 1464 1448 1442 1439 1440 1447 1451 1455 1457 1459 1461 1462 1463 1464 1469 1476 1466 1482 1471 1456 1441 1445
1550 1546 1543 1539 1535 1531 1526 1522 1517 1513 1508 1504 1499 1494 1489 1486 1482 1477 1471 1467 1464 1460 1459 1459 1461 1466 1442 1434 1435 1437 1441 1446 1451 1454 1456 1457 1458 1461 1462 1470 1491 1482 1474 1464 1460 1441 1440
1549 1546 1542 1537 1533 1529 1525 1520 1515 1510 1505 1500 1496 1491 1486 1482 1479 1475 1469 1465 1465 1461 1459 1455 1451 1442 1430 1433 1435 1434 1438 1442 1447 1449 1453 1452 1461 1461 1460 1458 1459 1459 1460 1458 1443 1436 1453
1548 1545 1541 1536 1532 1527 1523 1519 1514 1509 1503 1499 1494 1489 1483 1479 1476 1473 1471 1469 1469 1468 1447 1443 1436 1435 1431 1430 1434 1430 1434 1438 1440 1446 1444 1453 1455 1451 1450 1450 1455 1455 1459 1455 1442 1429 1444
1547 1543 1538 1534 1530 1525 1521 1516 1511 1507 1502 1497 1492 1487 1481 1476 1473 1472 1470 1470 1468 1466 1454 1423 1416 1416 1414 1424 1425 1423 1428 1429 1432 1439 1438 1448 1442 1444 1446 1448 1451 1452 1456 1450 1453 1436 1439
1544 1540 1536 1531 1527 1523 1519 1514 1510 1505 1500 1495 1491 1486 1480 1473 1473 1470 1468 1465 1464 1465 1461 1418 1402 1394 1402 1414 1415 1413 1420 1425 1426 1432 1434 1437 1433 1436 1440 1443 1442 1456 1437 1439 1442 1448 1466
1542 1538 1533 1529 1525 1521 1517 1512 1508 1503 1497 1493 1488 1485 1481 1479 1471 1469 1468 1465 1464 1463 1478 1390 1386 1387 1387 1399 1400 1405 1409 1416 1418 1423 1427 1428 1427 1430 1433 1434 1431 1436 1433 1435 1435 1443 1449
1539 1535 1531 1526 1522 1518 1514 1510 1506 1500 1495 1490 1486 1482 1477 1475 1471 1467 1464 1463 1464 1471 1465 1397 1377 1382 1392 1398 1394 1393 1404 1410 1415 1418 1416 1416 1415 1418 1420 1420 1421 1424 1431 1432 1432 1438 1463
1536 1532 1528 1523 1519 1515 1511 1507 1502 1497 1492 1486 1481 1478 1475 1471 1466 1468 1466 1464 1471 1464 1406 1390 1383 1379 1383 1389 1395 1393 1400 1408 1414 1428 1425 1417 1412 1410 1410 1419 1415 1420 1441 1464 1472 1463 1467
1533 1529 1525 1520 1516 1512 1508 1503 1499 1494 1489 1483 1477 1474 1469 1465 1461 1464 1465 1466 1466 1419 1413 1378 1389 1384 1385 1380 1383 1386 1391 1403 1400 1407 1422 1432 1436 1405 1398 1405 1417 1418 1428 1450 1482 1469 1457
1531 1526 1521 1517 1513 1509 1505 1500 1496 1491 1486 1480 1473 1466 1462 1455 1456 1461 1467 1462 1432 1421 1410 1409 1396 1387 1381 1373 1376 1383 1386 1390 1390 1396 1416 1418 1418 1391 1392 1392 1399 1416 1421 1414 1445 1439 1456
1528 1523 1519 1515 1510 1506 1501 1497 1493 1488 1483 1478 1470 1462 1453 1451 1456 1459 1458 1441 1427 1415 1414 1424 1435 1406 1409 1402 1397 1377 1379 1373 1379 1382 1390 1397 1418 1389 1384 1387 1388 1395 1400 1431 1423 1462 1462
1525 1520 1516 1512 1508 1504 1499 1495 1491 1486 1481 1476 1470 1465 1447 1449 1444 1447 1438 1436 1434 1427 1427 1426 1422 1416 1410 1403 1403 1398 1380 1361 1363 1369 1375 1385 1397 1394 1382 1384 1394 1396 1402 1409 1415 1424 1447
1521 1517 1512 1508 1504 1500 1496 1493 1488 1484 1479 1474 1472 1465 1443 1445 1447 1431 1430 1430 1434 1428 1428 1419 1416 1414 1411 1405 1395 1391 1386 1375 1354 1355 1367 1368 1385 1401 1385 1370 1366 1373 1391 1400 1426 1440 1428
1517 1513 1508 1504 1500 1496 1493 1490 1487 1483 1479 1476 1472 1462 1442 1445 1443 1435 1429 1425 1425 1423 1420 1418 1409 1409 1403 1399 1401 1384 1375 1361 1360 1361 1351 1356 1369 1400 1393 1377 1365 1372 1372 1383 1388 1412 1426
1513 1509 1504 1500 1496 1492 1489 1486 1483 1482 1480 1478 1476 1464 1447 1442 1438 1437 1433 1432 1434 1429 1425 1420 1414 1409 1408 1401 1398 1381 1376 1361 1354 1348 1344 1352 1348 1359 1381 1378 1370 1377 1368 1369 1385 1403 1403
1509 1505 1501 1496 1492 1488 1485 1482 1480 1479 1478 1479 1476 1467 1462 1455 1443 1446 1443 1445 1436 1431 1425 1426 1416 1422 1423 1417 1408 1393 1386 1378 1359 1343 1341 1348 1343 1342 1347 1349 1356 1359 1361 1360 1374 1378 1401
1506 1501 1496 1492 1488 1485 1481 1477 1476 1476 1475 1475 1475 1470 1465 1460 1453 1447 1438 1432 1429 1422 1426 1424 1427 1427 1425 1420 1423 1415 1408 1403 1392 1362 1368 1353 1350 1336 1348 1343 1347 1354 1349 1352 1355 1361 1369
1501 1496 1492 1487 1484 1480 1477 1473 1472 1472 1471 1470 1469 1468 1465 1459 1453 1449 1441 1435 1437 1438 1431 1429 1425 1421 1422 1417 1418 1413 1409 1401 1394 1386 1381 1372 1357 1344 1352 1341 1351 1367 1341 1348 1350 1344 1355
1497 1492 1487 1482 1478 1474 1471 1469 1467 1467 1466 1466 1465 1464 1462 1454 1454 1447 1441 1437 1431 1431 1424 1422 1420 1417 1415 1414 1409 1398 1390 1384 1377 1365 1367 1360 1359 1347 1351 1349 1382 1336 1324 1330 1340 1340 1338
1492 1487 1482 1477 1474 1470 1467 1465 1463 1463 1462 1461 1460 1459 1457 1452 1450 1443 1437 1434 1430 1427 1422 1419 1416 1414 1410 1411 1406 1388 1375 1370 1355 1347 1347 1345 1350 1353 1354 1352 1343 1334 1330 1333 1341 1343 1333
1489 1484 1478 1473 1470 1467 1464 1462 1460 1458 1458 1456 1455 1456 1454 1452 1443 1440 1437 1434 1430 1426 1421 1418 1414 1409 1406 1405 1409 1398 1386 1378 1364 1339 1327 1331 1334 1344 1346 1357 1359 1332 1326 1325 1326 1356 1332
1487 1482 1477 1472 1468 1464 1461 1459 1456 1455 1453 1452 1450 1452 1450 1447 1436 1438 1433 1431 1429 1425 1424 1418 1415 1409 1406 1403 1406 1404 1398 1381 1376 1363 1344 1335 1334 1339 1339 1344 1337 1318 1324 1326 1359 1359 1334
1486 1481 1476 1472 1467 1463 1459 1457 1454 1451 1449 1448 1446 1447 1446 1439 1431 1430 1426 1426 1423 1421 1420 1417 1416 1413 1405 1397 1396 1396 1393 1380 1373 1362 1361 1355 1342 1341 1336 1345 1354 1323 1325 1340 1337 1330 1332
1485 1480 1475 1470 1466 1462 1458 1455 1452 1449 1447 1445 1443 1443 1441 1434 1425 1423 1420 1416 1416 1415 1416 1414 1414 1413 1412 1396 1386 1385 1384 1383 1378 1371 1349 1364 1369 1361 1343 1343 1332 1329 1330 1332 1336 1334 1331
Wind_Speed
25 25 24 25 25 25 25 25 24 24 23 23 23 23 22 22 21 22 23 23 23 22 21 20 20 18 16 9 28 15 15 12 10 13 15 26 23 22 12 16 22 13 14 25 26 24 28
28 27 26 26 26 26 26 26 26 25 25 25 25 25 23 24 23 23 22 22 23 24 22 21 20 18 14 11 18 7 16 22 19 15 17 22 16 24 17 19 14 23 20 21 16 34 26
27 27 27 28 28 28 29 28 27 27 27 26 26 26 25 25 26 25 24 23 21 22 22 21 20 19 19 36 9 8 14 13 9 16 15 20 25 23 19 12 29 24 14 16 13 6 12
26 26 26 27 27 28 29 29 30 31 30 29 29 28 26 24 25 26 26 25 23 21 20 20 18 17 17 28 22 15 24 19 16 11 14 17 17 25 23 20 22 13 9 6 10 10 10
26 26 27 28 29 30 30 29 29 30 32 33 32 32 29 26 26 26 25 22 21 21 19 18 12 10 18 12 17 23 21 21 19 17 21 13 19 25 19 7 7 7 9 11 13 9 7
29 29 29 28 28 29 30 32 30 30 30 31 30 31 32 28 25 26 25 19 14 16 11 8 10 6 22 21 16 14 18 27 24 20 19 20 20 7 8 7 10 9 7 11 14 10 16
28 29 30 30 29 29 30 32 31 31 31 32 33 33 31 29 24 23 22 15 10 4 3 9 9 14 28 19 14 18 22 20 21 24 11 21 7 16 12 14 11 14 14 16 19 10 9
29 29 29 28 28 29 30 30 29 31 32 32 32 33 33 29 24 13 11 11 14 18 18 24 34 43 42 24 16 20 23 21 20 14 9 10 18 11 12 11 17 20 19 19 15 10 10
28 29 27 28 29 30 30 30 32 34 33 29 30 31 32 30 15 5 10 15 18 19 10 23 36 32 44 38 34 27 27 24 10 13 14 17 9 17 18 17 18 21 20 17 11 8 7
25 27 27 28 29 31 30 30 31 34 34 33 29 28 29 33 6 9 7 11 8 17 5 8 9 13 23 33 14 40 34 23 14 16 15 12 17 19 22 21 19 18 22 22 20 14 7
27 27 28 29 29 30 30 31 33 34 33 33 30 28 26 21 26 18 15 10 12 14 6 6 9 9 15 29 11 33 39 28 18 17 9 17 16 20 19 22 19 20 14 21 22 15 7
27 28 29 29 29 29 30 32 34 35 34 34 32 28 27 23 22 16 11 6 11 2 9 7 10 8 13 24 18 4 42 39 25 15 14 17 17 17 18 15 21 15 14 16 18 13 11
28 28 28 27 28 30 32 34 33 32 33 34 33 30 25 25 24 11 14 8 2 7 8 7 6 11 14 13 21 23 20 26 22 16 19 16 20 21 16 17 13 18 8 12 10 12 8
27 28 29 29 30 30 30 30 31 32 33 35 36 30 26 24 23 5 4 3 11 9 13 18 8 13 14 14 17 21 14 22 24 17 7 14 17 23 14 19 15 15 15 12 12 12 9
29 29 28 29 29 28 28 30 31 31 32 35 37 32 24 18 10 8 13 9 6 9 9 13 18 12 16 15 12 18 18 20 21 23 19 14 16 9 23 20 17 11 18 15 5 8 6
27 27 27 28 29 29 29 29 30 31 32 32 34 31 25 3 8 22 11 16 7 12 23 20 9 8 12 16 16 17 20 19 22 27 22 11 7 18 19 22 17 19 7 12 14 14 17
28 28 28 28 29 29 29 28 28 29 29 28 23 14 5 11 16 19 16 12 17 29 29 11 16 25 24 25 19 22 17 23 25 23 25 23 15 18 10 17 22 13 16 11 7 12 12
28 29 29 29 29 29 28 28 27 27 28 24 12 5 13 24 9 9 14 16 24 25 32 25 20 25 26 26 28 25 24 20 17 26 21 22 15 15 24 18 21 21 10 12 9 6 4
29 29 29 29 29 28 27 26 24 24 21 23 14 20 19 10 5 8 12 20 24 22 21 22 25 22 20 24 24 22 25 29 30 20 23 13 17 10 14 13 17 20 19 11 17 5 12
30 30 30 29 28 28 27 25 23 21 19 15 8 5 11 27 13 13 15 12 15 23 20 25 19 19 17 20 18 19 24 21 30 24 25 11 14 27 17 12 6 8 22 20 15 14 16
30 30 30 29 28 28 27 23 21 17 15 11 5 5 15 7 13 20 15 6 16 14 12 18 13 17 21 14 23 18 14 18 23 26 14 5 18 16 21 16 16 24 16 24 22 18 14
30 31 30 29 28 27 26 22 18 14 13 11 5 6 8 18 19 17 17 15 16 19 11 15 18 11 18 11 17 19 21 15 12 16 15 14 10 9 10 8 24 20 18 19 24 23 19
31 30 29 28 28 26 26 21 16 12 14 8 9 12 8 5 10 9 11 18 18 17 7 10 19 12 15 16 11 26 31 32 25 26 23 10 6 4 9 7 6 15 26 19 11 17 16
29 29 29 28 27 25 24 21 16 11 15 16 17 15 6 7 9 13 20 23 18 21 15 15 21 12 22 27 24 28 27 27 25 25 18 18 16 8 6 6 9 4 10 9 14 10 11
29 30 29 26 24 23 20 19 15 11 10 16 19 18 5 5 12 17 18 18 17 25 16 22 19 17 20 18 5 8 10 17 24 22 18 14 11 6 6 10 3 8 9 5 7 13 8
29 28 27 22 21 19 18 16 14 13 13 15 16 14 12 3 7 16 16 20 13 8 11 16 28 23 13 3 1 3 4 4 8 10 13 13 10 8 3 7 19 3 6 6 3 2 4
27 26 25 22 19 17 16 14 14 15 12 14 17 12 12 7 19 14 12 11 16 9 4 11 10 13 15 5 3 3 1 7 6 8 6 5 2 6 6 8 4 5 4 5 6 5 4
25 24 23 21 20 20 17 15 17 15 12 12 16 11 16 15 26 28 30 27 22 21 9 9 7 4 4 6 4 4 4 4 6 7 9 5 4 1 1 4 4 6 7 5 5 6 6
25 24 22 21 21 21 19 18 16 16 14 15 17 12 16 22 21 32 28 29 33 33 30 9 6 2 5 4 3 1 4 2 3 4 3 3 4 5 5 2 2 4 9 5 8 3 5
Wind_Direction
11 10 8 5 1 359 356 353 349 344 338 335 333 331 328 322 318 315 313 310 306 302 300 300 299 303 304 280 261 251 274 254 232 244 256 223 231 239 239 255 266 254 220 204 179 194 206
6 4 2 1 358 356 355 352 348 345 341 335 330 330 329 325 319 315 312 309 306 303 300 297 295 296 288 249 289 279 243 241 248 249 245 213 223 229 248 256 264 274 288 236 225 207 172
358 358 356 354 352 350 349 348 346 344 341 337 332 329 326 325 324 318 313 308 303 299 298 295 293 289 266 255 259 279 251 258 273 217 231 223 227 249 248 264 269 283 293 295 268 227 143
352 352 352 350 348 345 343 342 340 339 338 335 332 330 328 325 323 319 314 312 304 295 292 289 288 283 257 278 275 240 223 249 238 222 230 231 232 249 264 271 279 277 290 290 268 186 209
348 347 346 345 345 344 342 338 336 336 336 334 331 328 327 327 324 321 316 314 303 297 287 280 281 257 272 297 245 218 215 229 223 237 230 232 233 234 251 256 291 281 258 268 267 232 145
345 345 346 346 346 346 347 346 345 342 340 337 332 328 325 324 327 324 321 322 316 304 288 263 208 287 255 249 229 227 205 223 218 225 233 235 233 235 219 211 223 237 243 258 254 261 155
343 344 344 344 344 345 349 351 350 345 342 338 338 335 329 324 329 327 325 352 351 356 263 247 236 218 274 273 230 205 199 203 208 225 212 217 211 225 219 217 231 245 244 248 249 198 81
339 341 341 342 343 342 344 346 347 345 339 335 337 336 333 327 329 325 319 327 315 305 294 270 254 249 254 251 278 225 196 182 198 217 194 220 223 222 236 226 223 244 253 263 282 200 108
332 334 338 340 341 342 341 340 342 343 341 338 336 336 334 332 326 290 308 338 345 325 284 286 248 238 230 237 243 249 194 199 194 215 207 219 226 215 232 232 223 227 243 258 255 236 112
333 333 334 335 335 336 337 337 337 339 340 339 338 337 335 334 326 295 306 329 315 345 287 269 210 246 221 215 245 235 211 207 212 214 223 231 221 219 216 231 226 225 230 249 260 265 195
336 335 334 333 331 332 332 333 334 334 335 335 337 336 333 340 311 310 312 280 358 332 302 236 192 177 191 177 147 218 219 210 211 210 191 226 213 223 229 221 232 234 221 236 252 253 152
334 333 332 331 329 329 329 328 328 329 329 328 329 330 328 325 291 321 323 350 338 242 245 273 146 164 141 202 232 31 202 225 232 224 233 239 235 233 236 238 220 242 230 246 251 255 242
329 329 329 328 326 324 324 324 327 329 327 327 324 322 316 306 294 289 293 309 226 228 270 233 181 167 196 183 215 238 228 206 211 208 223 236 236 248 230 239 225 218 219 237 249 242 236
331 331 328 326 324 324 326 327 328 329 329 328 327 324 312 294 294 274 351 288 234 235 227 299 316 298 202 208 205 219 187 202 211 222 194 218 240 229 228 221 224 211 215 224 221 230 251
331 333 334 333 331 327 324 323 324 324 326 327 328 325 311 305 276 227 236 227 209 200 282 350 342 295 268 203 197 208 222 202 202 206 222 203 229 240 221 241 214 231 215 225 264 255 267
338 338 337 335 334 333 331 327 325 323 322 326 330 330 317 307 279 220 223 232 242 270 324 336 316 289 331 320 305 202 215 213 203 203 215 248 255 220 237 219 237 209 196 208 223 229 242
335 333 331 330 330 331 330 329 329 330 328 331 331 314 316 337 285 213 227 227 254 277 287 296 292 288 290 295 292 290 271 216 220 203 203 215 237 257 244 211 211 228 219 228 194 223 234
333 330 327 325 324 323 323 327 328 328 331 337 317 292 322 306 317 230 237 247 267 271 272 278 279 288 287 293 293 286 275 272 259 203 213 200 211 237 252 255 211 211 207 205 221 260 255
335 333 332 329 323 321 320 319 326 331 333 338 316 293 307 317 261 273 284 270 265 274 283 282 284 282 287 287 286 279 284 289 279 290 217 194 210 221 249 266 249 216 210 205 220 163 235
335 334 331 329 327 324 318 318 315 321 326 329 304 309 306 335 293 271 285 312 329 320 312 331 314 330 334 310 313 298 298 290 292 274 289 306 195 211 221 228 230 230 206 205 197 220 235
333 330 330 329 326 326 323 313 312 312 312 314 275 278 311 306 325 326 312 241 299 304 313 328 323 340 330 312 315 306 340 335 323 299 279 282 234 213 217 212 213 238 248 204 209 215 206
329 330 327 325 324 320 321 314 306 304 294 276 266 296 321 302 304 316 313 298 336 324 325 309 310 314 322 291 288 316 325 326 292 325 338 326 270 159 202 206 224 239 242 238 209 218 228
327 325 324 322 321 317 319 313 306 302 278 262 273 277 276 292 310 302 295 325 318 330 289 312 307 301 309 305 297 279 280 278 270 277 288 282 315 165 207 167 239 251 230 241 252 218 202
331 330 326 324 322 318 316 312 301 295 274 276 273 271 258 283 279 289 299 298 311 315 302 299 301 286 268 320 289 282 263 264 271 269 249 266 285 263 159 129 212 243 186 220 234 250 215
336 332 327 323 322 320 314 313 299 295 280 275 284 268 256 262 280 292 296 312 313 303 323 309 318 332 299 320 316 304 287 272 276 255 256 231 257 270 149 186 287 276 262 223 231 251 237
342 339 338 332 326 322 317 316 308 298 285 280 275 269 257 269 246 295 306 299 292 317 312 315 326 323 316 224 149 290 248 328 294 315 211 236 242 231 157 183 219 156 237 101 71 192 27
346 345 344 340 337 332 326 321 316 312 295 286 279 273 250 244 268 270 281 317 308 296 274 304 339 329 319 215 171 224 261 296 265 313 309 226 231 233 183 205 263 159 246 120 141 204 55
345 344 344 344 343 340 331 319 318 316 311 285 285 278 258 254 265 272 276 274 281 273 267 284 347 341 254 220 188 179 224 265 302 324 317 316 341 284 12 150 239 350 60 167 205 132 123
346 345 343 337 334 334 330 326 319 313 305 297 288 286 276 262 266 285 266 252 257 259 268 259 211 151 288 295 293 88 229 193 338 313 14 328 24 302 352 86 108 72 153 32 299 330 76